Location: Tamazert
(32.6352°N, 5.2072°W)
Time: 15:56:52
(UTC+00:00)

Vanguard 3 - Pass Details

Date: 10 October 2022
Orbit: 509 x 3255 km, 33.3° (Epoch: 08 December)

Event Time Altitude Azimuth Distance (km) Brightness Sun altitude
Rises 05:03:21 0° 226° (SW) 3,404 - -17.1°
Reaches altitude 10° 05:06:35 10° 214° (SSW) 2,151 - -16.5°
Exits shadow 05:06:45 11° 213° (SSW) 2,095 8.9 -16.4°
Maximum altitude 05:10:25 25° 158° (SSE) 1,169 8.2 -15.7°
Drops below altitude 10° 05:13:33 10° 101° (E) 1,738 10.2 -15.0°
Sets 05:15:51 0° 86° (E) 2,601 11.7 -14.5°
